Location: Home
(42.5358°N, 72.7383°W)
Time: 12:56:42
(UTC-05:00)

A-11 Canister half - Pass Details

Date: 09 December 2021
Orbit: 1516 x 1684 km, 47.2° (Epoch: 24 January)

Event Time Altitude Azimuth Distance (km) Brightness Sun altitude
Rises 06:14:37 0° 247° (WSW) 4,726 11.1 -9.8°
Reaches altitude 10° 06:17:38 10° 248° (WSW) 3,764 10.6 -9.3°
Maximum altitude 06:27:16 86° 337° (NNW) 1,622 9.1 -7.7°
Drops below altitude 10° 06:37:19 10° 68° (ENE) 3,905 11.8 -6.0°
Sets 06:40:30 0° 69° (ENE) 4,910 12.4 -5.5°
